Weather History for Osceola, WI

Change the Weather History Date:

Tuesday, August 6, 2013

  Actual Average (KMSP) Record (KMSP)
Temperature  
Mean Temperature 68 °F 73 °F  
Max Temperature 83 °F 82 °F 99 °F (2001)
Min Temperature 54 °F 63 °F 48 °F (1977)
Degree Days  
Heating Degree Days 0 0  
Month to date heating degree days 0  
Since 1 June heating degree days 49  
Since 1 July heating degree days 5  
Cooling Degree Days 4 8  
Month to date cooling degree days 48  
Year to date cooling degree days 524  
Since 1 June cooling degree days 482  
Growing Degree Days 18 (Base 50)    
Moisture  
Dew Point 61 °F    
Average Humidity 82    
Maximum Humidity 100    
Minimum Humidity 57    
Precipitation  
Precipitation 0.16 in 0.15 in 1.67 in (1995)
Month to date precipitation 0.90  
Year to date precipitation 18.77  
Snow  
Snow 0.00 in 0.00 in 0.00 in ()
Month to date snowfall 0.0  
Since 1 June snowfall 0.0  
Since 1 July snowfall 0.0  
Snow Depth -    
Sea Level Pressure  
Sea Level Pressure 29.81 in    
Wind  
Wind Speed 4 mph (SSW)    
Max Wind Speed 22 mph    
Max Gust Speed 29 mph    
Visibility 10 miles    
Events Rain    
T = Trace of Precipitation, MM = Missing Value Source: NWS Daily Summary

Daily Weather History Graph

Daily Weather History Graph

Search for Another Location

Airport:

Trip Planner

Search our weather history database for the weather conditions in past years. The results will help you decide how hot, cold, wet, or windy it might be!

Date:

Astronomy

Aug. 06, 2013 Rise Set
Actual Time 6:01 AM CDT 8:31 PM CDT
Civil Twilight 5:28 AM CDT 9:04 PM CDT
Nautical Twilight 4:46 AM CDT 9:45 PM CDT
Astronomical Twilight 3:58 AM CDT 10:32 PM CDT
Moon 5:56 AM CDT (8/6) 8:01 PM CDT (8/6)
Length of Visible Light 15h 36m
Length of Day
14h 29m
Waning Crescent, 0% of the Moon is Illuminated
Aug 6
Waning Crescent
Aug 6
New
Aug 14
First Quarter
Aug 20
Full
Aug 28
Last Quarter

Hourly Weather History & Observations

Time (CDT) Temp. Heat Index Dew Point Humidity Pressure Visibility Wind Dir Wind Speed Gust Speed Precip Events Conditions
12:15 AM 65.7 °F - 62.8 °F 90% 29.86 in 10.0 mi WNW 6.9 mph - N/A   Clear
12:35 AM 65.1 °F - 61.7 °F 89% 29.87 in 10.0 mi WNW 6.9 mph - N/A   Mostly Cloudy
12:55 AM 64.4 °F - 61.0 °F 89% 29.85 in 10.0 mi WNW 5.8 mph - N/A   Mostly Cloudy
1:15 AM 63.1 °F - 60.1 °F 90% 29.86 in 10.0 mi West 4.6 mph - N/A   Scattered Clouds
1:35 AM 62.6 °F - 59.9 °F 91% 29.85 in 10.0 mi Calm Calm - N/A   Scattered Clouds
1:55 AM 61.5 °F - 59.0 °F 91% 29.85 in 10.0 mi Calm Calm - N/A   Scattered Clouds
2:15 AM 59.4 °F - 58.5 °F 97% 29.85 in 10.0 mi Calm Calm - N/A   Clear
2:35 AM 58.8 °F - 58.3 °F 98% 29.86 in 10.0 mi West 3.5 mph - N/A   Clear
2:55 AM 58.6 °F - 58.1 °F 98% 29.84 in 10.0 mi Calm Calm - N/A   Clear
3:15 AM 57.4 °F - 56.5 °F 97% 29.84 in 10.0 mi SW 3.5 mph - N/A   Clear
3:35 AM 56.7 °F - 55.8 °F 97% 29.84 in 10.0 mi WSW 3.5 mph - N/A   Clear
3:55 AM 56.3 °F - 56.3 °F 100% 29.85 in 10.0 mi West 4.6 mph - N/A   Clear
4:15 AM 56.3 °F - 56.3 °F 100% 29.84 in 10.0 mi WSW 4.6 mph - N/A   Clear
4:35 AM 55.9 °F - 55.8 °F 99% 29.83 in 10.0 mi Calm Calm - N/A   Clear
4:55 AM 55.6 °F - 55.4 °F 99% 29.83 in 10.0 mi WSW 4.6 mph - N/A   Clear
5:15 AM 55.8 °F - 55.6 °F 99% 29.84 in 10.0 mi West 3.5 mph - N/A   Clear
5:35 AM 54.7 °F - 54.5 °F 99% 29.85 in 10.0 mi Calm Calm - N/A   Clear
5:55 AM 55.2 °F - 55.0 °F 99% 29.84 in 10.0 mi Calm Calm - N/A   Clear
6:15 AM 54.0 °F - 53.8 °F 99% 29.85 in 5.0 mi Calm Calm - N/A   Clear
6:35 AM 54.9 °F - 54.9 °F 100% 29.85 in 10.0 mi Calm Calm - N/A   Clear
6:55 AM 55.8 °F - 55.2 °F 98% 29.85 in 10.0 mi Calm Calm - N/A   Clear
7:15 AM 56.1 °F - 55.8 °F 99% 29.86 in 10.0 mi Calm Calm - N/A   Clear
7:35 AM 57.6 °F - 57.2 °F 99% 29.86 in 10.0 mi South 3.5 mph - N/A   Clear
7:55 AM 57.9 °F - 57.4 °F 98% 29.86 in 10.0 mi Calm Calm - N/A   Clear
8:15 AM 59.7 °F - 57.7 °F 93% 29.87 in 10.0 mi Calm Calm - N/A   Clear
8:35 AM 60.6 °F - 58.5 °F 93% 29.87 in 10.0 mi Calm Calm - N/A   Clear
8:55 AM 61.7 °F - 58.5 °F 89% 29.87 in 10.0 mi SW 3.5 mph - N/A   Clear
9:15 AM 62.2 °F - 58.5 °F 87% 29.86 in 10.0 mi SW 5.8 mph - N/A   Clear
9:35 AM 63.7 °F - 58.6 °F 84% 29.85 in 10.0 mi SSW 3.5 mph - N/A   Clear
9:55 AM 64.9 °F - 59.5 °F 83% 29.86 in 10.0 mi SW 3.5 mph - N/A   Clear
10:15 AM 65.7 °F - 59.2 °F 80% 29.85 in 10.0 mi Calm Calm - N/A   Clear
10:35 AM 67.8 °F - 60.3 °F 77% 29.86 in 10.0 mi SW 5.8 mph - N/A   Clear
10:55 AM 68.9 °F - 60.1 °F 73% 29.85 in 10.0 mi South 5.8 mph - N/A   Clear
11:15 AM 69.8 °F - 59.7 °F 70% 29.84 in 10.0 mi SSE 4.6 mph - N/A   Clear
11:35 AM 70.2 °F - 59.2 °F 68% 29.84 in 10.0 mi SE 5.8 mph - N/A   Scattered Clouds
11:55 AM 71.8 °F - 58.8 °F 64% 29.84 in 10.0 mi South 4.6 mph - N/A   Mostly Cloudy
12:15 PM 71.8 °F - 59.4 °F 65% 29.84 in 10.0 mi South 4.6 mph - N/A   Overcast
12:35 PM 68.7 °F - 59.5 °F 72% 29.86 in 4.0 mi WNW 3.5 mph - 0.03 in Rain Heavy Rain
12:55 PM 70.7 °F - 60.4 °F 70% 29.84 in 10.0 mi SE 3.5 mph - 0.04 in   Overcast
1:15 PM 71.8 °F - 59.9 °F 66% 29.83 in 10.0 mi East 5.8 mph - N/A   Overcast
1:35 PM 72.5 °F - 61.3 °F 68% 29.81 in 10.0 mi ESE 5.8 mph - N/A   Mostly Cloudy
1:55 PM 73.4 °F - 61.3 °F 66% 29.83 in 10.0 mi NE 5.8 mph - N/A   Mostly Cloudy
2:15 PM 74.7 °F - 62.4 °F 66% 29.81 in 10.0 mi East 5.8 mph - N/A   Mostly Cloudy
2:35 PM 74.7 °F - 61.5 °F 63% 29.80 in 10.0 mi SE 3.5 mph - N/A   Scattered Clouds
2:55 PM 76.3 °F - 61.2 °F 59% 29.79 in 10.0 mi SSE 9.2 mph - N/A   Clear
3:15 PM 77.0 °F - 61.9 °F 59% 29.79 in 10.0 mi SSE 9.2 mph - N/A   Clear
3:35 PM 78.3 °F - 63.3 °F 60% 29.77 in 10.0 mi SE 5.8 mph - N/A   Scattered Clouds
3:55 PM 80.1 °F 81.8 °F 64.8 °F 59% 29.77 in 10.0 mi South 11.5 mph - N/A   Scattered Clouds
4:15 PM 80.4 °F 82.3 °F 65.5 °F 60% 29.76 in 10.0 mi South 8.1 mph - N/A   Scattered Clouds
4:35 PM 80.1 °F 82.0 °F 65.7 °F 61% 29.76 in 10.0 mi SSW 6.9 mph - N/A   Scattered Clouds
4:55 PM 80.1 °F 82.2 °F 66.4 °F 63% 29.76 in 10.0 mi SSW 8.1 mph - N/A   Mostly Cloudy
5:15 PM 80.2 °F 82.6 °F 67.3 °F 64% 29.75 in 10.0 mi South 4.6 mph - N/A   Mostly Cloudy
5:35 PM 83.3 °F 85.9 °F 66.9 °F 58% 29.74 in 10.0 mi SW 10.4 mph - N/A   Scattered Clouds
5:55 PM 80.4 °F 82.0 °F 64.0 °F 57% 29.74 in 10.0 mi WSW 15.0 mph 18.4 mph N/A   Scattered Clouds
6:15 PM 78.6 °F - 64.8 °F 62% 29.74 in 10.0 mi WSW 9.2 mph - N/A   Scattered Clouds
6:35 PM 78.1 °F - 64.9 °F 64% 29.73 in 10.0 mi SW 6.9 mph - N/A   Scattered Clouds
6:55 PM 77.9 °F - 65.1 °F 65% 29.72 in 10.0 mi SSW 4.6 mph - N/A   Scattered Clouds
7:15 PM 75.9 °F - 66.9 °F 74% 29.72 in 10.0 mi SW 4.6 mph - N/A   Mostly Cloudy
7:35 PM 76.5 °F - 65.8 °F 70% 29.73 in 10.0 mi SW 5.8 mph - N/A   Mostly Cloudy
7:55 PM 73.4 °F - 66.7 °F 80% 29.73 in 10.0 mi Calm Calm - N/A   Scattered Clouds
8:15 PM 73.8 °F - 66.6 °F 78% 29.71 in 10.0 mi Calm Calm - N/A   Clear
8:35 PM 72.1 °F - 66.6 °F 83% 29.73 in 10.0 mi Calm Calm - N/A   Mostly Cloudy
8:55 PM 71.1 °F - 63.9 °F 78% 29.81 in 10.0 mi North 21.9 mph 28.8 mph N/A Rain Light Rain
9:15 PM 63.7 °F - 61.7 °F 93% 29.80 in 7.0 mi NNW 6.9 mph 21.9 mph 0.08 in Rain Rain
9:35 PM 63.5 °F - 61.9 °F 94% 29.73 in 7.0 mi East 8.1 mph - 0.11 in Rain Light Rain
9:55 PM 62.6 °F - 61.7 °F 97% 29.71 in 10.0 mi NE 5.8 mph - 0.12 in   Scattered Clouds
10:15 PM 62.8 °F - 61.7 °F 96% 29.75 in 10.0 mi SSW 4.6 mph - N/A   Clear
10:35 PM 61.9 °F - 61.2 °F 97% 29.80 in 10.0 mi WSW 5.8 mph - N/A   Scattered Clouds
10:55 PM 62.1 °F - 61.7 °F 99% 29.80 in 10.0 mi Calm Calm - N/A   Mostly Cloudy
11:15 PM 62.6 °F - 62.1 °F 98% 29.81 in 10.0 mi Calm Calm - N/A   Mostly Cloudy
11:35 PM 61.9 °F - 61.7 °F 99% 29.81 in 10.0 mi Calm Calm - N/A   Mostly Cloudy
11:55 PM 62.1 °F - 61.9 °F 99% 29.80 in 10.0 mi Calm Calm - N/A   Mostly Cloudy